EJU82TR LIMC-LFBO

Flight info

Callsign EJU82TR
Flight time 1h 11m
Altitude 30000
Route TOP DCT RONOP DCT GIGUS/N0393F280 DCT BALSI DCT GIPNO DCT RUSIT/N0416F310 DCT ESIDA DCT LERGA/N0423F330 DCT MINSO DCT NARAK
Aircraft A319/M-SDE2E3FGIJ1RWXYZ/LB1

Departure

Time 2026-05-04 13:36
Airport Milan Malpensa International Airport (LIMC)

Arrival

Time 2026-05-04 14:47
Airport Toulouse-Blagnac Airport (LFBO)
Time Latitude Longitude Altitude Speed Heading
2026-05-04 12:47 45.64539 8.72484 736 ft 0 kts 349°
2026-05-04 13:23 45.64534 8.72486 736 ft 4 kts 349°
2026-05-04 13:23 45.64507 8.72493 735 ft 4 kts 349°
2026-05-04 13:23 45.64486 8.72499 734 ft 3 kts 348°
2026-05-04 13:23 45.64463 8.72512 735 ft 4 kts 291°
2026-05-04 13:24 45.64463 8.72545 736 ft 3 kts 260°
2026-05-04 13:24 45.64464 8.72549 736 ft 1 kts 259°
2026-05-04 13:28 45.64463 8.72540 735 ft 2 kts 259°
2026-05-04 13:28 45.64457 8.72496 735 ft 5 kts 259°
2026-05-04 13:28 45.64440 8.72437 736 ft 7 kts 222°
2026-05-04 13:28 45.64382 8.72436 736 ft 10 kts 169°
2026-05-04 13:29 45.64305 8.72457 735 ft 12 kts 169°
2026-05-04 13:29 45.64212 8.72484 735 ft 15 kts 168°
2026-05-04 13:29 45.64119 8.72511 736 ft 10 kts 168°
2026-05-04 13:29 45.64040 8.72538 736 ft 13 kts 161°
2026-05-04 13:30 45.63944 8.72567 736 ft 16 kts 169°
2026-05-04 13:30 45.63823 8.72601 736 ft 20 kts 169°
2026-05-04 13:30 45.63678 8.72641 736 ft 22 kts 169°
2026-05-04 13:30 45.63522 8.72684 735 ft 24 kts 169°
2026-05-04 13:31 45.63354 8.72730 736 ft 25 kts 169°
2026-05-04 13:31 45.63183 8.72777 736 ft 21 kts 169°
2026-05-04 13:31 45.63033 8.72818 736 ft 23 kts 169°
2026-05-04 13:31 45.62871 8.72863 737 ft 25 kts 169°
2026-05-04 13:32 45.62698 8.72911 737 ft 26 kts 169°
2026-05-04 13:32 45.62533 8.72956 737 ft 20 kts 169°
2026-05-04 13:32 45.62385 8.72996 737 ft 22 kts 169°
2026-05-04 13:32 45.62229 8.73039 736 ft 24 kts 169°
2026-05-04 13:33 45.62058 8.73086 737 ft 26 kts 169°
2026-05-04 13:33 45.61895 8.73131 736 ft 21 kts 169°
2026-05-04 13:33 45.61796 8.73159 736 ft 13 kts 167°
2026-05-04 13:33 45.61726 8.73236 737 ft 13 kts 124°
2026-05-04 13:34 45.61672 8.73350 737 ft 15 kts 124°
2026-05-04 13:34 45.61610 8.73483 736 ft 15 kts 124°
2026-05-04 13:34 45.61583 8.73606 737 ft 12 kts 87°
2026-05-04 13:34 45.61599 8.73712 737 ft 7 kts 76°
2026-05-04 13:35 45.61639 8.73731 737 ft 5 kts 348°
2026-05-04 13:35 45.62169 8.73583 738 ft 110 kts 349°
2026-05-04 13:35 45.63145 8.73312 759 ft 170 kts 347°
2026-05-04 13:36 45.64290 8.73014 1483 ft 167 kts 347°
2026-05-04 13:36 45.65433 8.72725 2251 ft 167 kts 348°
2026-05-04 13:36 45.66603 8.72623 3008 ft 169 kts 358°
2026-05-04 13:36 45.67783 8.72629 3724 ft 170 kts 358°
2026-05-04 13:37 45.69000 8.72626 4325 ft 185 kts 359°
2026-05-04 13:37 45.69885 8.72621 4628 ft 199 kts 359°
2026-05-04 13:37 45.71728 8.72457 5121 ft 228 kts 341°
2026-05-04 13:37 45.72651 8.71679 5572 ft 232 kts 314°
2026-05-04 13:38 45.73472 8.68925 6722 ft 233 kts 266°
2026-05-04 13:38 45.73095 8.66685 7620 ft 233 kts 248°
2026-05-04 13:38 45.72556 8.64497 8603 ft 234 kts 247°
2026-05-04 13:38 45.72010 8.62285 9611 ft 236 kts 247°
2026-05-04 13:39 45.71410 8.60094 10514 ft 237 kts 239°
2026-05-04 13:39 45.70519 8.57993 11001 ft 259 kts 234°
2026-05-04 13:39 45.69511 8.55722 11375 ft 283 kts 235°
2026-05-04 13:39 45.68326 8.53338 11753 ft 304 kts 225°
2026-05-04 13:40 45.66613 8.51505 12444 ft 312 kts 206°
2026-05-04 13:40 45.64600 8.50270 13282 ft 317 kts 202°
2026-05-04 13:40 45.62551 8.49067 14100 ft 321 kts 203°
2026-05-04 13:40 45.60459 8.47850 14854 ft 325 kts 203°
2026-05-04 13:41 45.58351 8.46629 15608 ft 329 kts 203°
2026-05-04 13:41 45.56294 8.45175 16319 ft 332 kts 216°
2026-05-04 13:41 45.54668 8.42834 17023 ft 337 kts 235°
2026-05-04 13:42 45.52769 8.36643 18482 ft 345 kts 247°
2026-05-04 13:42 45.51894 8.33443 19105 ft 349 kts 247°
2026-05-04 13:42 45.51019 8.30242 19723 ft 352 kts 247°
2026-05-04 13:42 45.50124 8.26977 20353 ft 355 kts 246°
2026-05-04 13:43 45.49217 8.23690 20976 ft 359 kts 246°
2026-05-04 13:43 45.48296 8.20363 21603 ft 362 kts 246°
2026-05-04 13:43 45.47363 8.17001 22217 ft 366 kts 246°
2026-05-04 13:43 45.46421 8.13620 22832 ft 370 kts 246°
2026-05-04 13:44 45.45464 8.10195 23416 ft 374 kts 246°
2026-05-04 13:44 45.44499 8.06745 23961 ft 378 kts 246°
2026-05-04 13:44 45.43521 8.03252 24477 ft 381 kts 246°
2026-05-04 13:44 45.42537 7.99743 25007 ft 383 kts 246°
2026-05-04 13:45 45.41546 7.96209 25530 ft 385 kts 246°
2026-05-04 13:45 45.40553 7.92662 26037 ft 388 kts 246°
2026-05-04 13:45 45.39549 7.89076 26536 ft 390 kts 246°
2026-05-04 13:45 45.38542 7.85476 27022 ft 393 kts 246°
2026-05-04 13:46 45.37527 7.81866 27517 ft 395 kts 246°
2026-05-04 13:46 45.36500 7.78225 27996 ft 397 kts 246°
2026-05-04 13:46 45.35464 7.74568 28484 ft 400 kts 246°
2026-05-04 13:46 45.34420 7.70897 28960 ft 402 kts 246°
2026-05-04 13:47 45.33369 7.67197 29440 ft 405 kts 246°
2026-05-04 13:47 45.32311 7.63478 29889 ft 407 kts 246°
2026-05-04 13:47 45.31247 7.59747 30120 ft 407 kts 246°
2026-05-04 13:47 45.30205 7.56076 30141 ft 391 kts 246°
2026-05-04 13:48 45.29308 7.52916 30142 ft 378 kts 246°
2026-05-04 13:48 45.28330 7.49480 30144 ft 373 kts 245°
2026-05-04 13:48 45.26387 7.42699 30148 ft 369 kts 245°
2026-05-04 13:49 45.24808 7.35839 30120 ft 374 kts 262°
2026-05-04 13:49 45.24997 7.32143 30126 ft 380 kts 279°
2026-05-04 13:49 45.25651 7.28499 30126 ft 382 kts 281°
2026-05-04 13:50 45.26998 7.21218 30128 ft 381 kts 281°
2026-05-04 13:50 45.28339 7.13952 30128 ft 380 kts 281°
2026-05-04 13:51 45.29663 7.06679 30135 ft 381 kts 280°
2026-05-04 13:51 45.30976 6.99409 30138 ft 381 kts 280°
2026-05-04 13:52 45.32944 6.88458 30152 ft 381 kts 280°
2026-05-04 13:53 45.34251 6.81173 30144 ft 380 kts 280°
2026-05-04 13:53 45.35331 6.75117 30127 ft 380 kts 280°
2026-05-04 13:54 45.37275 6.64173 30103 ft 381 kts 280°
2026-05-04 13:55 45.39211 6.53216 30086 ft 381 kts 280°
2026-05-04 13:55 45.41138 6.42261 30074 ft 380 kts 280°
2026-05-04 13:56 45.42405 6.34993 30066 ft 381 kts 280°
2026-05-04 13:57 45.44315 6.24003 30066 ft 381 kts 279°
2026-05-04 13:58 45.46844 6.09338 30076 ft 382 kts 279°
2026-05-04 13:58 45.48734 5.98322 30082 ft 382 kts 279°
2026-05-04 13:59 45.49988 5.90965 30090 ft 382 kts 279°
2026-05-04 13:59 45.50750 5.83585 30077 ft 372 kts 260°
2026-05-04 14:00 45.50378 5.79941 30081 ft 371 kts 257°
2026-05-04 14:00 45.49172 5.69056 30067 ft 371 kts 257°
2026-05-04 14:01 45.48359 5.61805 30051 ft 370 kts 257°
2026-05-04 14:02 45.47134 5.50998 30073 ft 370 kts 257°
2026-05-04 14:02 45.46311 5.43768 30063 ft 369 kts 257°
2026-05-04 14:03 45.45494 5.36558 30065 ft 369 kts 256°
2026-05-04 14:03 45.44663 5.29356 30072 ft 368 kts 256°
2026-05-04 14:04 45.43403 5.18590 30076 ft 367 kts 256°
2026-05-04 14:04 45.42570 5.11433 30069 ft 366 kts 256°
2026-05-04 14:05 45.41313 5.00733 30059 ft 365 kts 256°
2026-05-04 14:06 45.40472 4.93620 30055 ft 365 kts 256°
2026-05-04 14:06 45.39619 4.86505 30047 ft 364 kts 256°
2026-05-04 14:07 45.38765 4.79409 30042 ft 364 kts 256°
2026-05-04 14:07 45.37919 4.72359 30034 ft 364 kts 256°
2026-05-04 14:08 45.37061 4.65279 30032 ft 363 kts 256°
2026-05-04 14:08 45.36198 4.58200 30026 ft 363 kts 256°
2026-05-04 14:09 45.34901 4.47589 30018 ft 363 kts 256°
2026-05-04 14:10 45.33596 4.36995 30020 ft 363 kts 256°
2026-05-04 14:10 45.32722 4.29938 30021 ft 362 kts 255°
2026-05-04 14:11 45.31842 4.22894 30018 ft 362 kts 255°
2026-05-04 14:11 45.30507 4.12330 30011 ft 362 kts 255°
2026-05-04 14:12 45.29612 4.05305 30001 ft 361 kts 255°
2026-05-04 14:13 45.28269 3.94770 30001 ft 361 kts 255°
2026-05-04 14:13 45.27379 3.87799 30006 ft 361 kts 255°
2026-05-04 14:14 45.26365 3.80838 29996 ft 357 kts 245°
2026-05-04 14:14 45.23879 3.74849 29993 ft 352 kts 234°
2026-05-04 14:14 45.22530 3.71890 29988 ft 352 kts 234°
2026-05-04 14:15 45.17225 3.60278 29985 ft 352 kts 234°
2026-05-04 14:16 45.13231 3.51557 29979 ft 352 kts 234°
2026-05-04 14:17 45.09223 3.42860 29981 ft 352 kts 234°
2026-05-04 14:18 45.05203 3.34166 29974 ft 352 kts 234°
2026-05-04 14:19 44.99838 3.22576 29971 ft 353 kts 234°
2026-05-04 14:19 44.97146 3.16777 29967 ft 353 kts 234°
2026-05-04 14:20 44.94455 3.10983 29971 ft 353 kts 234°
2026-05-04 14:20 44.91759 3.05206 29966 ft 353 kts 234°
2026-05-04 14:21 44.87725 2.96577 29957 ft 353 kts 234°
2026-05-04 14:21 44.85020 2.90799 29965 ft 353 kts 234°
2026-05-04 14:22 44.82311 2.85038 29953 ft 353 kts 234°
2026-05-04 14:22 44.79594 2.79273 29950 ft 353 kts 234°
2026-05-04 14:23 44.75514 2.70612 29941 ft 354 kts 234°
2026-05-04 14:24 44.72784 2.64836 29939 ft 354 kts 234°
2026-05-04 14:24 44.70057 2.59076 29936 ft 354 kts 234°
2026-05-04 14:25 44.67322 2.53316 29673 ft 355 kts 234°
2026-05-04 14:25 44.64586 2.47563 28683 ft 352 kts 233°
2026-05-04 14:25 44.63228 2.44716 28234 ft 350 kts 233°
2026-05-04 14:26 44.61876 2.41884 27787 ft 348 kts 233°
2026-05-04 14:26 44.60535 2.39076 27344 ft 346 kts 233°
2026-05-04 14:26 44.59200 2.36277 26899 ft 344 kts 233°
2026-05-04 14:26 44.57875 2.33506 26436 ft 341 kts 233°
2026-05-04 14:27 44.56550 2.30745 25990 ft 339 kts 233°
2026-05-04 14:27 44.55236 2.28009 25560 ft 337 kts 233°
2026-05-04 14:27 44.53948 2.25327 25134 ft 335 kts 233°
2026-05-04 14:27 44.52652 2.22632 24686 ft 333 kts 233°
2026-05-04 14:28 44.51361 2.19949 24237 ft 331 kts 233°
2026-05-04 14:28 44.50081 2.17285 23815 ft 329 kts 233°
2026-05-04 14:28 44.48804 2.14630 23433 ft 327 kts 233°
2026-05-04 14:28 44.47537 2.11998 22953 ft 325 kts 233°
2026-05-04 14:29 44.44973 2.06848 22070 ft 319 kts 225°
2026-05-04 14:29 44.41197 2.03857 21548 ft 316 kts 198°
2026-05-04 14:30 44.39111 2.02884 21287 ft 315 kts 198°
2026-05-04 14:30 44.37030 2.01914 21029 ft 315 kts 198°
2026-05-04 14:30 44.32893 1.99990 20511 ft 313 kts 198°
2026-05-04 14:31 44.30828 1.99029 20267 ft 312 kts 199°
2026-05-04 14:31 44.26739 1.97132 19740 ft 305 kts 198°
2026-05-04 14:32 44.22747 1.95283 19015 ft 300 kts 198°
2026-05-04 14:32 44.20770 1.94369 18648 ft 299 kts 198°
2026-05-04 14:32 44.18801 1.93461 18285 ft 297 kts 198°
2026-05-04 14:32 44.16842 1.92561 17894 ft 296 kts 198°
2026-05-04 14:33 44.14885 1.91662 17535 ft 294 kts 198°
2026-05-04 14:33 44.12951 1.90775 17179 ft 292 kts 198°
2026-05-04 14:33 44.11027 1.89891 16828 ft 291 kts 198°
2026-05-04 14:33 44.09137 1.89024 16487 ft 289 kts 198°
2026-05-04 14:34 44.07234 1.88151 16151 ft 288 kts 198°
2026-05-04 14:34 44.05338 1.87279 15815 ft 287 kts 199°
2026-05-04 14:34 44.03447 1.86408 15481 ft 286 kts 199°
2026-05-04 14:34 44.01563 1.85542 15149 ft 285 kts 199°
2026-05-04 14:35 43.99687 1.84678 14814 ft 284 kts 199°
2026-05-04 14:35 43.97811 1.83815 14486 ft 284 kts 199°
2026-05-04 14:35 43.95939 1.82955 14149 ft 283 kts 199°
2026-05-04 14:35 43.94070 1.82099 13819 ft 283 kts 199°
2026-05-04 14:36 43.92198 1.81240 13462 ft 283 kts 199°
2026-05-04 14:36 43.90332 1.80385 13111 ft 282 kts 199°
2026-05-04 14:36 43.88478 1.79539 12781 ft 280 kts 199°
2026-05-04 14:36 43.86628 1.78697 12445 ft 279 kts 199°
2026-05-04 14:37 43.84790 1.77858 12103 ft 277 kts 199°
2026-05-04 14:37 43.82964 1.77024 11758 ft 276 kts 199°
2026-05-04 14:37 43.81142 1.76193 11422 ft 275 kts 199°
2026-05-04 14:37 43.79325 1.75367 11076 ft 274 kts 199°
2026-05-04 14:38 43.77517 1.74547 10733 ft 273 kts 199°
2026-05-04 14:38 43.75712 1.73729 10381 ft 272 kts 199°
2026-05-04 14:38 43.73916 1.72915 10027 ft 272 kts 199°
2026-05-04 14:38 43.72122 1.72101 9656 ft 271 kts 199°
2026-05-04 14:39 43.70337 1.71288 9272 ft 269 kts 199°
2026-05-04 14:39 43.68567 1.70480 8902 ft 267 kts 199°
2026-05-04 14:39 43.66810 1.69681 8540 ft 265 kts 198°
2026-05-04 14:40 43.63331 1.68102 7789 ft 261 kts 198°
2026-05-04 14:40 43.61612 1.67325 7414 ft 259 kts 198°
2026-05-04 14:40 43.59904 1.66554 7027 ft 258 kts 198°
2026-05-04 14:40 43.58205 1.65785 6647 ft 256 kts 198°
2026-05-04 14:41 43.56514 1.65019 6249 ft 256 kts 198°
2026-05-04 14:41 43.54826 1.64258 5837 ft 254 kts 198°
2026-05-04 14:41 43.51530 1.62773 5128 ft 248 kts 198°
2026-05-04 14:42 43.48703 1.60288 4633 ft 235 kts 230°
2026-05-04 14:42 43.47866 1.58438 4552 ft 222 kts 246°
2026-05-04 14:42 43.47435 1.56442 4458 ft 215 kts 257°
2026-05-04 14:43 43.47167 1.54432 4348 ft 209 kts 269°
2026-05-04 14:43 43.47491 1.52542 4138 ft 205 kts 299°
2026-05-04 14:43 43.48459 1.51133 3831 ft 203 kts 324°
2026-05-04 14:43 43.49587 1.49975 3546 ft 201 kts 324°
2026-05-04 14:44 43.50694 1.48834 3280 ft 197 kts 324°
2026-05-04 14:44 43.51779 1.47711 3068 ft 192 kts 323°
2026-05-04 14:44 43.52848 1.46605 2766 ft 191 kts 323°
2026-05-04 14:44 43.53882 1.45533 2510 ft 181 kts 323°
2026-05-04 14:45 43.54863 1.44516 2281 ft 173 kts 323°
2026-05-04 14:45 43.55816 1.43528 2051 ft 170 kts 323°
2026-05-04 14:45 43.56756 1.42553 1832 ft 168 kts 323°
2026-05-04 14:45 43.57370 1.41916 1681 ft 163 kts 323°
2026-05-04 14:46 43.58217 1.41036 1457 ft 143 kts 323°
2026-05-04 14:46 43.58974 1.40249 1274 ft 132 kts 324°
2026-05-04 14:46 43.59688 1.39507 1089 ft 127 kts 322°
2026-05-04 14:46 43.60385 1.38783 927 ft 124 kts 322°
2026-05-04 14:47 43.61067 1.38075 757 ft 121 kts 323°
2026-05-04 14:47 43.61741 1.37373 595 ft 122 kts 324°
2026-05-04 14:47 43.62397 1.36687 495 ft 107 kts 322°
2026-05-04 14:47 43.62837 1.36234 490 ft 49 kts 323°
2026-05-04 14:48 43.63072 1.35990 490 ft 38 kts 323°
2026-05-04 14:48 43.63265 1.35788 485 ft 32 kts 323°
2026-05-04 14:48 43.63412 1.35636 494 ft 16 kts 323°
2026-05-04 14:48 43.63501 1.35542 494 ft 15 kts 323°
2026-05-04 14:49 43.63576 1.35508 494 ft 11 kts 21°
2026-05-04 14:49 43.63629 1.35593 491 ft 12 kts 53°
2026-05-04 14:49 43.63683 1.35691 488 ft 13 kts 53°
2026-05-04 14:49 43.63741 1.35797 489 ft 14 kts 52°
2026-05-04 14:50 43.63798 1.35901 491 ft 12 kts 53°
2026-05-04 14:50 43.63803 1.36003 492 ft 12 kts 129°
2026-05-04 14:50 43.63735 1.36077 494 ft 13 kts 143°
2026-05-04 14:50 43.63660 1.36154 494 ft 14 kts 143°
2026-05-04 14:51 43.63582 1.36236 494 ft 15 kts 143°
2026-05-04 14:51 43.63495 1.36326 489 ft 17 kts 143°
2026-05-04 14:51 43.63390 1.36434 487 ft 20 kts 143°
2026-05-04 14:51 43.63272 1.36557 494 ft 22 kts 143°
2026-05-04 14:52 43.63149 1.36684 486 ft 22 kts 143°
2026-05-04 14:52 43.63023 1.36815 490 ft 23 kts 143°
2026-05-04 14:52 43.62905 1.36939 494 ft 15 kts 143°
2026-05-04 14:52 43.62840 1.37010 494 ft 10 kts 127°
2026-05-04 14:53 43.62849 1.37097 487 ft 10 kts 54°
2026-05-04 14:53 43.62893 1.37177 490 ft 10 kts 51°
2026-05-04 14:53 43.62920 1.37200 494 ft 0 kts 20°
2026-05-04 14:54 43.62933 1.37202 494 ft 3 kts
2026-05-04 14:55 43.62962 1.37208 487 ft 5 kts 27°
2026-05-04 14:55 43.62985 1.37245 490 ft 4 kts 52°
2026-05-04 14:55 43.62995 1.37263 489 ft 1 kts 53°
2026-05-04 14:55 43.63000 1.37272 494 ft 1 kts 53°